| time (UTC) | temp F | wind direction | speed MPH | gust MPH | rain 1hr in | rain 24hr in | rain mn in | humidity % | barometer mb |
| 20260506044616 | 36 | 337 | 2.0 | 5.0 | 0.00 | 0.00 | 0.00 | 56 | 1012.9 |
| 20260506043056 | 35 | 350 | 1.0 | 4.0 | 0.00 | 0.00 | 0.00 | 54 | 1012.9 |
| 20260506041605 | 34 | 318 | 1.0 | 5.0 | 0.00 | 0.00 | 0.00 | 52 | 1012.9 |
| 20260506040053 | 33 | 318 | 2.0 | 5.0 | 0.00 | 0.00 | 0.00 | 52 | 1012.8 |
| 20260506034544 | 32 | 316 | 2.0 | 5.0 | 0.00 | 0.00 | 0.00 | 50 | 1012.9 |
| 20260506033039 | 32 | 316 | 2.0 | 4.0 | 0.00 | 0.00 | 0.00 | 47 | 1013.0 |
| 20260506031534 | 31 | 316 | 2.0 | 5.0 | 0.00 | 0.00 | 0.00 | 47 | 1012.9 |
| 20260506030030 | 31 | 316 | 1.0 | 3.0 | 0.00 | 0.00 | 0.00 | 45 | 1012.8 |
| 20260506024525 | 31 | 316 | 1.0 | 4.0 | 0.00 | 0.00 | 0.00 | 32 | 1013.0 |
| 20260506023021 | 31 | 316 | 1.0 | 3.0 | 0.00 | 0.00 | 0.00 | 17 | 1012.8 |
| 20260506021516 | 31 | 316 | 2.0 | 3.0 | 0.00 | 0.00 | 0.00 | 11 | 1012.9 |
| 20260506020023 | 31 | 316 | 1.0 | 2.0 | 0.00 | 0.00 | 0.00 | 3 | 1012.9 |
| 20260506014509 | 30 | 316 | 0.0 | 0.0 | 0.00 | 0.00 | 0.00 | 1 | 1012.7 |
| 20260506013005 | 30 | 316 | 0.0 | 0.0 | 0.00 | 0.00 | 0.00 | 4 | 1012.7 |
| 20260506011602 | 31 | 316 | 0.0 | 0.0 | 0.00 | 0.00 | 0.00 | 9 | 1012.6 |
| 20260506010055 | 31 | 316 | 0.0 | 2.0 | 0.00 | 0.00 | 0.00 | 3 | 1012.4 |
| 20260506004550 | 32 | 316 | 0.0 | 1.0 | 0.00 | 0.00 | 0.00 | 15 | 1012.3 |
| 20260506003047 | 32 | 316 | 1.0 | 2.0 | 0.00 | 0.00 | 0.00 | 30 | 1012.3 |
| 20260506001548 | 33 | 316 | 0.0 | 2.0 | 0.00 | 0.00 | 0.00 | 38 | 1012.3 |
| 20260506000055 | 33 | 316 | 1.0 | 3.0 | 0.00 | 0.00 | 0.00 | 36 | 1012.2 |
| 20260505234543 | 34 | 316 | 1.0 | 3.0 | 0.00 | 0.00 | 0.00 | 37 | 1012.3 |
| 20260505233037 | 34 | 316 | 1.0 | 3.0 | 0.00 | 0.00 | 0.00 | 32 | 1012.4 |
| 20260505231535 | 34 | 316 | 0.0 | 2.0 | 0.00 | 0.00 | 0.00 | 37 | 1012.2 |
| 20260505230041 | 36 | 316 | 0.0 | 3.0 | 0.00 | 0.00 | 0.00 | 49 | 1012.2 |
| 20260505224528 | 37 | 316 | 1.0 | 2.0 | 0.00 | 0.00 | 0.00 | 50 | 1012.2 |
| 20260505223025 | 36 | 316 | 0.0 | 0.0 | 0.00 | 0.00 | 0.00 | 46 | 1012.3 |
| 20260505221523 | 37 | 316 | 0.0 | 2.0 | 0.00 | 0.00 | 0.00 | 49 | 1012.2 |
| 20260505220018 | 39 | 316 | 0.0 | 2.0 | 0.00 | 0.00 | 0.00 | 55 | 1012.0 |
| 20260505214514 | 40 | 316 | 1.0 | 2.0 | 0.00 | 0.00 | 0.00 | 57 | 1012.0 |
| 20260505213010 | 42 | 316 | 0.0 | 2.0 | 0.00 | 0.00 | 0.00 | 57 | 1012.0 |
| 20260505211506 | 43 | 316 | 0.0 | 3.0 | 0.00 | 0.00 | 0.00 | 52 | 1011.9 |
| 20260505210001 | 45 | 316 | 1.0 | 3.0 | 0.00 | 0.00 | 0.00 | 47 | 1011.8 |
| 20260505204605 | 45 | 316 | 1.0 | 5.0 | 0.00 | 0.00 | 0.00 | 45 | 1011.7 |
| 20260505203056 | 46 | 311 | 2.0 | 10.0 | 0.00 | 0.00 | 0.00 | 42 | 1011.4 |
| 20260505201549 | 47 | 294 | 4.0 | 10.0 | 0.00 | 0.00 | 0.00 | 42 | 1011.3 |
| 20260505200045 | 47 | 294 | 4.0 | 8.0 | 0.00 | 0.00 | 0.00 | 42 | 1011.2 |
| 20260505194539 | 47 | 299 | 3.0 | 8.0 | 0.00 | 0.00 | 0.00 | 41 | 1011.2 |
| 20260505193035 | 0 | 0.0 | 0.0 | 0.00 | 0.00 | 0.00 | 1011.0 | ||
| 20260505191535 | 0 | 0.0 | 0.0 | 0.00 | 0.00 | 0.00 | 1010.8 | ||
| 20260505190027 | 0 | 0.0 | 0.0 | 0.00 | 0.00 | 0.00 | 1010.7 | ||
| 20260505184529 | 0 | 0.0 | 0.0 | 0.00 | 0.00 | 0.00 | 1010.7 | ||
| 20260505183021 | 0 | 0.0 | 0.0 | 0.00 | 0.00 | 0.00 | 1010.6 | ||
| 20260505181514 | 0 | 0.0 | 0.0 | 0.00 | 0.00 | 0.00 | 1010.5 | ||
| 20260505180009 | 0 | 0.0 | 0.0 | 0.00 | 0.00 | 0.00 | 1010.4 | ||
| 20260505174505 | 0 | 0.0 | 0.0 | 0.00 | 0.00 | 0.00 | 1010.3 | ||
| 20260505173000 | 0 | 0.0 | 0.0 | 0.00 | 0.00 | 0.00 | 1010.2 | ||
| 20260505171603 | 0 | 0.0 | 0.0 | 0.00 | 0.00 | 0.00 | 1010.1 | ||
| 20260505170053 | 0 | 0.0 | 0.0 | 0.00 | 0.00 | 0.00 | 1010.1 | ||
| 20260505164549 | 0 | 0.0 | 0.0 | 0.00 | 0.00 | 0.00 | 1010.0 | ||
| 20260505163046 | 0 | 0.0 | 0.0 | 0.00 | 0.00 | 0.00 | 1009.8 | ||
| 20260505161539 | 0 | 0.0 | 0.0 | 0.00 | 0.00 | 0.00 | 1009.8 | ||
| 20260505153036 | 0 | 0.0 | 0.0 | 0.00 | 0.00 | 0.00 | 1009.6 | ||
| 20260505151523 | 0 | 0.0 | 0.0 | 0.00 | 0.00 | 0.00 | 1009.6 | ||
| 20260505124540 | 0 | 0.0 | 0.0 | 0.00 | 0.00 | 0.00 | 1009.7 | ||
| 20260505123047 | 0 | 0.0 | 0.0 | 0.00 | 0.00 | 0.00 | 1009.8 | ||
| 20260505121531 | 0 | 0.0 | 0.0 | 0.00 | 0.00 | 0.00 | 1009.9 | ||
| 20260505120026 | 0 | 0.0 | 0.0 | 0.00 | 0.00 | 0.00 | 1009.7 | ||
| 20260505114522 | 0 | 0.0 | 0.0 | 0.00 | 0.00 | 0.00 | 1010.0 | ||
| 20260505113017 | 0 | 0.0 | 0.0 | 0.00 | 0.00 | 0.00 | 1010.0 | ||
| 20260505111514 | 0 | 0.0 | 0.0 | 0.00 | 0.00 | 0.00 | 1009.9 | ||
| 20260505101602 | 0 | 0.0 | 0.0 | 0.00 | 0.00 | 0.00 | 1010.0 | ||
| 20260505100052 | 0 | 0.0 | 0.0 | 0.00 | 0.00 | 0.00 | 1010.0 | ||
| 20260505094548 | 0 | 0.0 | 0.0 | 0.00 | 0.00 | 0.00 | 1010.0 | ||
| 20260505093043 | 0 | 0.0 | 0.0 | 0.00 | 0.00 | 0.00 | 1009.9 | ||
| 20260505091548 | 0 | 0.0 | 0.0 | 0.00 | 0.00 | 0.00 | 1010.0 | ||
| 20260505090036 | 0 | 0.0 | 0.0 | 0.00 | 0.00 | 0.00 | 1009.9 | ||
| 20260505084535 | 0 | 0.0 | 0.0 | 0.00 | 0.00 | 0.00 | 1009.8 | ||
| 20260505083025 | 0 | 0.0 | 0.0 | 0.00 | 0.00 | 0.00 | 1009.8 | ||
| 20260505081523 | 0 | 0.0 | 0.0 | 0.00 | 0.00 | 0.00 | 1009.7 | ||
| 20260505080016 | 0 | 0.0 | 0.0 | 0.00 | 0.00 | 0.00 | 1009.7 | ||
| 20260505074513 | 51 | 238 | 7.0 | 16.0 | 0.00 | 0.00 | 0.00 | 54 | 1009.7 |
| 20260505073008 | 50 | 246 | 6.0 | 14.0 | 0.00 | 0.00 | 0.00 | 53 | 1009.8 |
| 20260505071503 | 50 | 269 | 5.0 | 13.0 | 0.00 | 0.00 | 0.00 | 54 | 1009.6 |
| 20260505070107 | 50 | 279 | 7.0 | 13.0 | 0.00 | 0.00 | 0.00 | 53 | 1009.6 |
| 20260505064639 | 49 | 319 | 6.0 | 16.0 | 0.00 | 0.00 | 0.00 | 49 | 1009.6 |
| 20260505063051 | 48 | 290 | 6.0 | 16.0 | 0.00 | 0.00 | 0.00 | 28 | 1009.7 |
| 20260505061547 | 48 | 252 | 6.0 | 11.0 | 0.00 | 0.00 | 0.00 | 3 | 1009.4 |
| 20260505060042 | 48 | 286 | 6.0 | 13.0 | 0.00 | 0.00 | 0.00 | 1 | 1009.4 |